Location: Arcones
(41.1182°N, 3.7238°W)
Time: 00:24:21
(UTC+00:00)

Cosmos 2263 Rocket - Pass Details

Date: 18 March 2026
Orbit: 823 x 847 km, 71.0° (Epoch: 13 April)

Event Time Altitude Azimuth Distance (km) Brightness Sun altitude
Rises 22:56:54 0° 333° (NNW) 3,392 6.1 -45.1°
Reaches altitude 10° 22:59:22 10° 330° (NNW) 2,450 5.2 -45.3°
Enters shadow 22:59:53 13° 329° (NNW) 2,260 4.9 -45.4°
